owner,sensor,date,latitude,longitude,sea_surface_height_above_sea_level,qcFlag 
COMPS,ioos:station:USF.COMPS:ARP:1,2010-05-01T00:00:00Z,28.4330,-82.6670,-0.263,1111122 
COMPS,ioos:station:USF.COMPS:ARP:1,2010-05-01T00:06:00Z,28.4330,-82.6670,-0.279,1111122 
COMPS,ioos:station:USF.COMPS:ARP:1,2010-05-01T00:12:00Z,28.4330,-82.6670,-0.293,1111122 
COMPS,ioos:station:USF.COMPS:ARP:1,2010-05-01T00:18:00Z,28.4330,-82.6670,-0.307,1111122 
COMPS,ioos:station:USF.COMPS:ARP:1,2010-05-01T00:24:00Z,28.4330,-82.6670,-0.321,1111122 
COMPS,ioos:station:USF.COMPS:ARP:1,2010-05-01T00:30:00Z,28.4330,-82.6670,-0.335,1111122 
COMPS,ioos:station:USF.COMPS:ARP:1,2010-05-01T00:36:00Z,28.4330,-82.6670,-0.348,1111122 
COMPS,ioos:station:USF.COMPS:ARP:1,2010-05-01T00:42:00Z,28.4330,-82.6670,-0.36,1111122 
COMPS,ioos:station:USF.COMPS:ARP:1,2010-05-01T00:48:00Z,28.4330,-82.6670,-0.372,1111122 
COMPS,ioos:station:USF.COMPS:ARP:1,2010-05-01T00:54:00Z,28.4330,-82.6670,-0.383,1111122 
COMPS,ioos:station:USF.COMPS:ARP:1,2010-05-01T01:00:00Z,28.4330,-82.6670,-0.394,1111122 
COMPS,ioos:station:USF.COMPS:ARP:1,2010-05-01T01:06:00Z,28.4330,-82.6670,-0.405,1111122 
COMPS,ioos:station:USF.COMPS:ARP:1,2010-05-01T01:12:00Z,28.4330,-82.6670,-0.415,1111122 
COMPS,ioos:station:USF.COMPS:ARP:1,2010-05-01T01:18:00Z,28.4330,-82.6670,-0.424,1111122 
COMPS,ioos:station:USF.COMPS:ARP:1,2010-05-01T01:24:00Z,28.4330,-82.6670,-0.434,1111122 
COMPS,ioos:station:USF.COMPS:ARP:1,2010-05-01T01:30:00Z,28.4330,-82.6670,-0.443,1111122 
COMPS,ioos:station:USF.COMPS:ARP:1,2010-05-01T01:36:00Z,28.4330,-82.6670,-0.453,1111122 
COMPS,ioos:station:USF.COMPS:ARP:1,2010-05-01T01:42:00Z,28.4330,-82.6670,-0.461,1111122 
COMPS,ioos:station:USF.COMPS:ARP:1,2010-05-01T01:48:00Z,28.4330,-82.6670,-0.47,1111122 
COMPS,ioos:station:USF.COMPS:ARP:1,2010-05-01T01:54:00Z,28.4330,-82.6670,-0.478,1111122 
COMPS,ioos:station:USF.COMPS:ARP:1,2010-05-01T02:00:00Z,28.4330,-82.6670,-0.485,1111122 
COMPS,ioos:station:USF.COMPS:ARP:1,2010-05-01T02:06:00Z,28.4330,-82.6670,-0.493,1111122 
COMPS,ioos:station:USF.COMPS:ARP:1,2010-05-01T02:12:00Z,28.4330,-82.6670,-0.5,1111122 
COMPS,ioos:station:USF.COMPS:ARP:1,2010-05-01T02:18:00Z,28.4330,-82.6670,-0.506,1111122 
COMPS,ioos:station:USF.COMPS:ARP:1,2010-05-01T02:24:00Z,28.4330,-82.6670,-0.512,1111122 
COMPS,ioos:station:USF.COMPS:ARP:1,2010-05-01T02:30:00Z,28.4330,-82.6670,-0.519,1111122 
COMPS,ioos:station:USF.COMPS:ARP:1,2010-05-01T02:36:00Z,28.4330,-82.6670,-0.524,1111122 
COMPS,ioos:station:USF.COMPS:ARP:1,2010-05-01T02:42:00Z,28.4330,-82.6670,-0.53,1111122 
COMPS,ioos:station:USF.COMPS:ARP:1,2010-05-01T02:48:00Z,28.4330,-82.6670,-0.535,1111122 
COMPS,ioos:station:USF.COMPS:ARP:1,2010-05-01T02:54:00Z,28.4330,-82.6670,-0.54,1111122 
COMPS,ioos:station:USF.COMPS:ARP:1,2010-05-01T03:00:00Z,28.4330,-82.6670,-0.544,1111122 
COMPS,ioos:station:USF.COMPS:ARP:1,2010-05-01T03:06:00Z,28.4330,-82.6670,-0.548,1111122 
COMPS,ioos:station:USF.COMPS:ARP:1,2010-05-01T03:12:00Z,28.4330,-82.6670,-0.551,1111122 
COMPS,ioos:station:USF.COMPS:ARP:1,2010-05-01T03:18:00Z,28.4330,-82.6670,-0.554,1111122 
COMPS,ioos:station:USF.COMPS:ARP:1,2010-05-01T03:24:00Z,28.4330,-82.6670,-0.556,1111122 
COMPS,ioos:station:USF.COMPS:ARP:1,2010-05-01T03:30:00Z,28.4330,-82.6670,-0.557,1111122 
COMPS,ioos:station:USF.COMPS:ARP:1,2010-05-01T03:36:00Z,28.4330,-82.6670,-0.555,1111122 
COMPS,ioos:station:USF.COMPS:ARP:1,2010-05-01T03:42:00Z,28.4330,-82.6670,-0.551,1111122 
COMPS,ioos:station:USF.COMPS:ARP:1,2010-05-01T03:48:00Z,28.4330,-82.6670,-0.547,1111122 
COMPS,ioos:station:USF.COMPS:ARP:1,2010-05-01T03:54:00Z,28.4330,-82.6670,-0.543,1111122 
COMPS,ioos:station:USF.COMPS:ARP:1,2010-05-01T04:00:00Z,28.4330,-82.6670,-0.536,1111122 
COMPS,ioos:station:USF.COMPS:ARP:1,2010-05-01T04:06:00Z,28.4330,-82.6670,-0.528,1111122 
COMPS,ioos:station:USF.COMPS:ARP:1,2010-05-01T04:12:00Z,28.4330,-82.6670,-0.519,1111122 
COMPS,ioos:station:USF.COMPS:ARP:1,2010-05-01T04:18:00Z,28.4330,-82.6670,-0.509,1111122 
COMPS,ioos:station:USF.COMPS:ARP:1,2010-05-01T04:24:00Z,28.4330,-82.6670,-0.498,1111122 
COMPS,ioos:station:USF.COMPS:ARP:1,2010-05-01T04:30:00Z,28.4330,-82.6670,-0.485,1111122 
COMPS,ioos:station:USF.COMPS:ARP:1,2010-05-01T04:36:00Z,28.4330,-82.6670,-0.472,1111122 
COMPS,ioos:station:USF.COMPS:ARP:1,2010-05-01T04:42:00Z,28.4330,-82.6670,-0.457,1111122 
COMPS,ioos:station:USF.COMPS:ARP:1,2010-05-01T04:48:00Z,28.4330,-82.6670,-0.44,1111122 
COMPS,ioos:station:USF.COMPS:ARP:1,2010-05-01T04:54:00Z,28.4330,-82.6670,-0.422,1111122 
COMPS,ioos:station:USF.COMPS:ARP:1,2010-05-01T05:00:00Z,28.4330,-82.6670,-0.4,1111122 
COMPS,ioos:station:USF.COMPS:ARP:1,2010-05-01T05:06:00Z,28.4330,-82.6670,-0.375,1111122 
COMPS,ioos:station:USF.COMPS:ARP:1,2010-05-01T05:12:00Z,28.4330,-82.6670,-0.35,1111122 
COMPS,ioos:station:USF.COMPS:ARP:1,2010-05-01T05:18:00Z,28.4330,-82.6670,-0.324,1111122 
COMPS,ioos:station:USF.COMPS:ARP:1,2010-05-01T05:24:00Z,28.4330,-82.6670,-0.296,1111122 
COMPS,ioos:station:USF.COMPS:ARP:1,2010-05-01T05:30:00Z,28.4330,-82.6670,-0.268,1111122 
COMPS,ioos:station:USF.COMPS:ARP:1,2010-05-01T05:36:00Z,28.4330,-82.6670,-0.238,1111122 
COMPS,ioos:station:USF.COMPS:ARP:1,2010-05-01T05:42:00Z,28.4330,-82.6670,-0.208,1111122 
COMPS,ioos:station:USF.COMPS:ARP:1,2010-05-01T05:48:00Z,28.4330,-82.6670,-0.176,1111122 
COMPS,ioos:station:USF.COMPS:ARP:1,2010-05-01T05:54:00Z,28.4330,-82.6670,-0.144,1111122 
COMPS,ioos:station:USF.COMPS:ARP:1,2010-05-01T06:00:00Z,28.4330,-82.6670,-0.113,1111122 
COMPS,ioos:station:USF.COMPS:ARP:1,2010-05-01T06:06:00Z,28.4330,-82.6670,-0.081,1111122 
COMPS,ioos:station:USF.COMPS:ARP:1,2010-05-01T06:12:00Z,28.4330,-82.6670,-0.051,1111122 
COMPS,ioos:station:USF.COMPS:ARP:1,2010-05-01T06:18:00Z,28.4330,-82.6670,-0.022,1111122 
COMPS,ioos:station:USF.COMPS:ARP:1,2010-05-01T06:24:00Z,28.4330,-82.6670,0.007,1111122 
COMPS,ioos:station:USF.COMPS:ARP:1,2010-05-01T06:30:00Z,28.4330,-82.6670,0.034,1111122 
COMPS,ioos:station:USF.COMPS:ARP:1,2010-05-01T06:36:00Z,28.4330,-82.6670,0.058,1111122 
COMPS,ioos:station:USF.COMPS:ARP:1,2010-05-01T06:42:00Z,28.4330,-82.6670,0.081,1111122 
COMPS,ioos:station:USF.COMPS:ARP:1,2010-05-01T06:48:00Z,28.4330,-82.6670,0.102,1111122 
COMPS,ioos:station:USF.COMPS:ARP:1,2010-05-01T06:54:00Z,28.4330,-82.6670,0.122,1111122 
COMPS,ioos:station:USF.COMPS:ARP:1,2010-05-01T07:00:00Z,28.4330,-82.6670,0.141,1111122 
COMPS,ioos:station:USF.COMPS:ARP:1,2010-05-01T07:06:00Z,28.4330,-82.6670,0.158,1111122 
COMPS,ioos:station:USF.COMPS:ARP:1,2010-05-01T07:12:00Z,28.4330,-82.6670,0.176,1111122 
COMPS,ioos:station:USF.COMPS:ARP:1,2010-05-01T07:18:00Z,28.4330,-82.6670,0.19,1111122 
COMPS,ioos:station:USF.COMPS:ARP:1,2010-05-01T07:24:00Z,28.4330,-82.6670,0.205,1111122 
COMPS,ioos:station:USF.COMPS:ARP:1,2010-05-01T07:30:00Z,28.4330,-82.6670,0.216,1111122 
COMPS,ioos:station:USF.COMPS:ARP:1,2010-05-01T07:36:00Z,28.4330,-82.6670,0.226,1111122 
COMPS,ioos:station:USF.COMPS:ARP:1,2010-05-01T07:42:00Z,28.4330,-82.6670,0.237,1111122 
COMPS,ioos:station:USF.COMPS:ARP:1,2010-05-01T07:48:00Z,28.4330,-82.6670,0.245,1111122 
COMPS,ioos:station:USF.COMPS:ARP:1,2010-05-01T07:54:00Z,28.4330,-82.6670,0.249,1111122 
COMPS,ioos:station:USF.COMPS:ARP:1,2010-05-01T08:00:00Z,28.4330,-82.6670,0.257,1111122 
COMPS,ioos:station:USF.COMPS:ARP:1,2010-05-01T08:06:00Z,28.4330,-82.6670,0.262,1111122 
COMPS,ioos:station:USF.COMPS:ARP:1,2010-05-01T08:12:00Z,28.4330,-82.6670,0.264,1111122 
COMPS,ioos:station:USF.COMPS:ARP:1,2010-05-01T08:18:00Z,28.4330,-82.6670,0.261,1111122 
COMPS,ioos:station:USF.COMPS:ARP:1,2010-05-01T08:24:00Z,28.4330,-82.6670,0.257,1111122 
COMPS,ioos:station:USF.COMPS:ARP:1,2010-05-01T08:30:00Z,28.4330,-82.6670,0.252,1111122 
COMPS,ioos:station:USF.COMPS:ARP:1,2010-05-01T08:36:00Z,28.4330,-82.6670,0.248,1111122 
COMPS,ioos:station:USF.COMPS:ARP:1,2010-05-01T08:42:00Z,28.4330,-82.6670,0.247,1111122 
COMPS,ioos:station:USF.COMPS:ARP:1,2010-05-01T08:48:00Z,28.4330,-82.6670,0.24,1111122 
COMPS,ioos:station:USF.COMPS:ARP:1,2010-05-01T08:54:00Z,28.4330,-82.6670,0.231,1111122 
COMPS,ioos:station:USF.COMPS:ARP:1,2010-05-01T09:00:00Z,28.4330,-82.6670,0.223,1111122 
COMPS,ioos:station:USF.COMPS:ARP:1,2010-05-01T09:06:00Z,28.4330,-82.6670,0.21,1111122 
COMPS,ioos:station:USF.COMPS:ARP:1,2010-05-01T09:12:00Z,28.4330,-82.6670,0.2,1111122 
COMPS,ioos:station:USF.COMPS:ARP:1,2010-05-01T09:18:00Z,28.4330,-82.6670,0.182,1111122 
COMPS,ioos:station:USF.COMPS:ARP:1,2010-05-01T09:24:00Z,28.4330,-82.6670,0.169,1111122 
COMPS,ioos:station:USF.COMPS:ARP:1,2010-05-01T09:30:00Z,28.4330,-82.6670,0.16,1111122 
COMPS,ioos:station:USF.COMPS:ARP:1,2010-05-01T09:36:00Z,28.4330,-82.6670,0.149,1111122 
COMPS,ioos:station:USF.COMPS:ARP:1,2010-05-01T09:42:00Z,28.4330,-82.6670,0.139,1111122 
COMPS,ioos:station:USF.COMPS:ARP:1,2010-05-01T09:48:00Z,28.4330,-82.6670,0.129,1111122 
COMPS,ioos:station:USF.COMPS:ARP:1,2010-05-01T09:54:00Z,28.4330,-82.6670,0.115,1111122 
COMPS,ioos:station:USF.COMPS:ARP:1,2010-05-01T10:00:00Z,28.4330,-82.6670,0.106,1111122 
COMPS,ioos:station:USF.COMPS:ARP:1,2010-05-01T10:06:00Z,28.4330,-82.6670,0.094,1111122 
COMPS,ioos:station:USF.COMPS:ARP:1,2010-05-01T10:12:00Z,28.4330,-82.6670,0.074,1111122 
COMPS,ioos:station:USF.COMPS:ARP:1,2010-05-01T10:18:00Z,28.4330,-82.6670,0.064,1111122 
COMPS,ioos:station:USF.COMPS:ARP:1,2010-05-01T10:24:00Z,28.4330,-82.6670,0.052,1111122 
COMPS,ioos:station:USF.COMPS:ARP:1,2010-05-01T10:30:00Z,28.4330,-82.6670,0.038,1111122 
COMPS,ioos:station:USF.COMPS:ARP:1,2010-05-01T10:36:00Z,28.4330,-82.6670,0.026,1111122 
COMPS,ioos:station:USF.COMPS:ARP:1,2010-05-01T10:42:00Z,28.4330,-82.6670,0.012,1111122 
COMPS,ioos:station:USF.COMPS:ARP:1,2010-05-01T10:48:00Z,28.4330,-82.6670,-0.003,1111122 
COMPS,ioos:station:USF.COMPS:ARP:1,2010-05-01T10:54:00Z,28.4330,-82.6670,-0.014,1111122 
COMPS,ioos:station:USF.COMPS:ARP:1,2010-05-01T11:00:00Z,28.4330,-82.6670,-0.029,1111122 
COMPS,ioos:station:USF.COMPS:ARP:1,2010-05-01T11:06:00Z,28.4330,-82.6670,-0.041,1111122 
COMPS,ioos:station:USF.COMPS:ARP:1,2010-05-01T11:12:00Z,28.4330,-82.6670,-0.052,1111122 
COMPS,ioos:station:USF.COMPS:ARP:1,2010-05-01T11:18:00Z,28.4330,-82.6670,-0.063,1111122 
COMPS,ioos:station:USF.COMPS:ARP:1,2010-05-01T11:24:00Z,28.4330,-82.6670,-0.076,1111122 
COMPS,ioos:station:USF.COMPS:ARP:1,2010-05-01T11:30:00Z,28.4330,-82.6670,-0.086,1111122 
COMPS,ioos:station:USF.COMPS:ARP:1,2010-05-01T11:36:00Z,28.4330,-82.6670,-0.101,1111122 
COMPS,ioos:station:USF.COMPS:ARP:1,2010-05-01T11:42:00Z,28.4330,-82.6670,-0.11,1111122 
COMPS,ioos:station:USF.COMPS:ARP:1,2010-05-01T11:48:00Z,28.4330,-82.6670,-0.12,1111122 
COMPS,ioos:station:USF.COMPS:ARP:1,2010-05-01T11:54:00Z,28.4330,-82.6670,-0.129,1111122 
COMPS,ioos:station:USF.COMPS:ARP:1,2010-05-01T12:00:00Z,28.4330,-82.6670,-0.14,1111122 
COMPS,ioos:station:USF.COMPS:ARP:1,2010-05-01T12:06:00Z,28.4330,-82.6670,-0.15,1111122 
COMPS,ioos:station:USF.COMPS:ARP:1,2010-05-01T12:12:00Z,28.4330,-82.6670,-0.159,1111122 
COMPS,ioos:station:USF.COMPS:ARP:1,2010-05-01T12:18:00Z,28.4330,-82.6670,-0.168,1111122 
COMPS,ioos:station:USF.COMPS:ARP:1,2010-05-01T12:24:00Z,28.4330,-82.6670,-0.176,1111122 
COMPS,ioos:station:USF.COMPS:ARP:1,2010-05-01T12:30:00Z,28.4330,-82.6670,-0.185,1111122 
COMPS,ioos:station:USF.COMPS:ARP:1,2010-05-01T12:36:00Z,28.4330,-82.6670,-0.193,1111122 
COMPS,ioos:station:USF.COMPS:ARP:1,2010-05-01T12:42:00Z,28.4330,-82.6670,-0.2,1111122 
COMPS,ioos:station:USF.COMPS:ARP:1,2010-05-01T12:48:00Z,28.4330,-82.6670,-0.202,1111122 
COMPS,ioos:station:USF.COMPS:ARP:1,2010-05-01T12:54:00Z,28.4330,-82.6670,-0.209,1111122 
COMPS,ioos:station:USF.COMPS:ARP:1,2010-05-01T13:00:00Z,28.4330,-82.6670,-0.209,1111122 
COMPS,ioos:station:USF.COMPS:ARP:1,2010-05-01T13:06:00Z,28.4330,-82.6670,-0.212,1111122 
COMPS,ioos:station:USF.COMPS:ARP:1,2010-05-01T13:12:00Z,28.4330,-82.6670,-0.213,1111122 
COMPS,ioos:station:USF.COMPS:ARP:1,2010-05-01T13:18:00Z,28.4330,-82.6670,-0.214,1111122 
COMPS,ioos:station:USF.COMPS:ARP:1,2010-05-01T13:24:00Z,28.4330,-82.6670,-0.211,1111122 
COMPS,ioos:station:USF.COMPS:ARP:1,2010-05-01T13:30:00Z,28.4330,-82.6670,-0.205,1111122 
COMPS,ioos:station:USF.COMPS:ARP:1,2010-05-01T13:36:00Z,28.4330,-82.6670,-0.2,1111122 
COMPS,ioos:station:USF.COMPS:ARP:1,2010-05-01T13:42:00Z,28.4330,-82.6670,-0.191,1111122 
COMPS,ioos:station:USF.COMPS:ARP:1,2010-05-01T13:48:00Z,28.4330,-82.6670,-0.178,1111122 
COMPS,ioos:station:USF.COMPS:ARP:1,2010-05-01T13:54:00Z,28.4330,-82.6670,-0.167,1111122 
COMPS,ioos:station:USF.COMPS:ARP:1,2010-05-01T14:00:00Z,28.4330,-82.6670,-0.156,1111122 
COMPS,ioos:station:USF.COMPS:ARP:1,2010-05-01T14:06:00Z,28.4330,-82.6670,-0.145,1111122 
COMPS,ioos:station:USF.COMPS:ARP:1,2010-05-01T14:12:00Z,28.4330,-82.6670,-0.135,1111122 
COMPS,ioos:station:USF.COMPS:ARP:1,2010-05-01T14:18:00Z,28.4330,-82.6670,-0.128,1111122 
COMPS,ioos:station:USF.COMPS:ARP:1,2010-05-01T14:24:00Z,28.4330,-82.6670,-0.117,1111122 
COMPS,ioos:station:USF.COMPS:ARP:1,2010-05-01T14:30:00Z,28.4330,-82.6670,-0.108,1111122 
COMPS,ioos:station:USF.COMPS:ARP:1,2010-05-01T14:36:00Z,28.4330,-82.6670,-0.097,1111122 
COMPS,ioos:station:USF.COMPS:ARP:1,2010-05-01T14:42:00Z,28.4330,-82.6670,-0.085,1111122 
COMPS,ioos:station:USF.COMPS:ARP:1,2010-05-01T14:48:00Z,28.4330,-82.6670,-0.071,1111122 
COMPS,ioos:station:USF.COMPS:ARP:1,2010-05-01T14:54:00Z,28.4330,-82.6670,-0.058,1111122 
COMPS,ioos:station:USF.COMPS:ARP:1,2010-05-01T15:00:00Z,28.4330,-82.6670,-0.045,1111122 
COMPS,ioos:station:USF.COMPS:ARP:1,2010-05-01T15:06:00Z,28.4330,-82.6670,-0.029,1111122 
COMPS,ioos:station:USF.COMPS:ARP:1,2010-05-01T15:12:00Z,28.4330,-82.6670,-0.012,1111122 
COMPS,ioos:station:USF.COMPS:ARP:1,2010-05-01T15:18:00Z,28.4330,-82.6670,0.003,1111122 
COMPS,ioos:station:USF.COMPS:ARP:1,2010-05-01T15:24:00Z,28.4330,-82.6670,0.023,1111122 
COMPS,ioos:station:USF.COMPS:ARP:1,2010-05-01T15:30:00Z,28.4330,-82.6670,0.043,1111122 
COMPS,ioos:station:USF.COMPS:ARP:1,2010-05-01T15:36:00Z,28.4330,-82.6670,0.062,1111122 
COMPS,ioos:station:USF.COMPS:ARP:1,2010-05-01T15:42:00Z,28.4330,-82.6670,0.083,1111122 
COMPS,ioos:station:USF.COMPS:ARP:1,2010-05-01T15:48:00Z,28.4330,-82.6670,0.102,1111122 
COMPS,ioos:station:USF.COMPS:ARP:1,2010-05-01T15:54:00Z,28.4330,-82.6670,0.124,1111122 
COMPS,ioos:station:USF.COMPS:ARP:1,2010-05-01T16:00:00Z,28.4330,-82.6670,0.145,1111122 
COMPS,ioos:station:USF.COMPS:ARP:1,2010-05-01T16:06:00Z,28.4330,-82.6670,0.168,1111122 
COMPS,ioos:station:USF.COMPS:ARP:1,2010-05-01T16:12:00Z,28.4330,-82.6670,0.189,1111122 
COMPS,ioos:station:USF.COMPS:ARP:1,2010-05-01T16:18:00Z,28.4330,-82.6670,0.21,1111122 
COMPS,ioos:station:USF.COMPS:ARP:1,2010-05-01T16:24:00Z,28.4330,-82.6670,0.233,1111122 
COMPS,ioos:station:USF.COMPS:ARP:1,2010-05-01T16:30:00Z,28.4330,-82.6670,0.254,1111122 
COMPS,ioos:station:USF.COMPS:ARP:1,2010-05-01T16:36:00Z,28.4330,-82.6670,0.277,1111122 
COMPS,ioos:station:USF.COMPS:ARP:1,2010-05-01T16:42:00Z,28.4330,-82.6670,0.3,1111122 
COMPS,ioos:station:USF.COMPS:ARP:1,2010-05-01T16:48:00Z,28.4330,-82.6670,0.324,1111122 
COMPS,ioos:station:USF.COMPS:ARP:1,2010-05-01T16:54:00Z,28.4330,-82.6670,0.346,1111122 
COMPS,ioos:station:USF.COMPS:ARP:1,2010-05-01T17:00:00Z,28.4330,-82.6670,0.368,1111122 
COMPS,ioos:station:USF.COMPS:ARP:1,2010-05-01T17:06:00Z,28.4330,-82.6670,0.389,1111122 
COMPS,ioos:station:USF.COMPS:ARP:1,2010-05-01T17:12:00Z,28.4330,-82.6670,0.41,1111122 
COMPS,ioos:station:USF.COMPS:ARP:1,2010-05-01T17:18:00Z,28.4330,-82.6670,0.432,1111122 
COMPS,ioos:station:USF.COMPS:ARP:1,2010-05-01T17:24:00Z,28.4330,-82.6670,0.452,1111122 
COMPS,ioos:station:USF.COMPS:ARP:1,2010-05-01T17:30:00Z,28.4330,-82.6670,0.472,1111122 
COMPS,ioos:station:USF.COMPS:ARP:1,2010-05-01T17:36:00Z,28.4330,-82.6670,0.493,1111122 
COMPS,ioos:station:USF.COMPS:ARP:1,2010-05-01T17:42:00Z,28.4330,-82.6670,0.512,1111122 
COMPS,ioos:station:USF.COMPS:ARP:1,2010-05-01T17:48:00Z,28.4330,-82.6670,0.534,1111122 
COMPS,ioos:station:USF.COMPS:ARP:1,2010-05-01T17:54:00Z,28.4330,-82.6670,0.555,1111122 
COMPS,ioos:station:USF.COMPS:ARP:1,2010-05-01T18:00:00Z,28.4330,-82.6670,0.574,1111122 
COMPS,ioos:station:USF.COMPS:ARP:1,2010-05-01T18:06:00Z,28.4330,-82.6670,0.592,1111122 
COMPS,ioos:station:USF.COMPS:ARP:1,2010-05-01T18:12:00Z,28.4330,-82.6670,0.614,1111122 
COMPS,ioos:station:USF.COMPS:ARP:1,2010-05-01T18:18:00Z,28.4330,-82.6670,0.629,1111122 
COMPS,ioos:station:USF.COMPS:ARP:1,2010-05-01T18:24:00Z,28.4330,-82.6670,0.641,1111122 
COMPS,ioos:station:USF.COMPS:ARP:1,2010-05-01T18:30:00Z,28.4330,-82.6670,0.654,1111122 
COMPS,ioos:station:USF.COMPS:ARP:1,2010-05-01T18:36:00Z,28.4330,-82.6670,0.666,1111122 
COMPS,ioos:station:USF.COMPS:ARP:1,2010-05-01T18:42:00Z,28.4330,-82.6670,0.673,1111122 
COMPS,ioos:station:USF.COMPS:ARP:1,2010-05-01T18:48:00Z,28.4330,-82.6670,0.678,1111122 
COMPS,ioos:station:USF.COMPS:ARP:1,2010-05-01T18:54:00Z,28.4330,-82.6670,0.681,1111122 
COMPS,ioos:station:USF.COMPS:ARP:1,2010-05-01T19:00:00Z,28.4330,-82.6670,0.681,1111122 
COMPS,ioos:station:USF.COMPS:ARP:1,2010-05-01T19:06:00Z,28.4330,-82.6670,0.676,1111122 
COMPS,ioos:station:USF.COMPS:ARP:1,2010-05-01T19:12:00Z,28.4330,-82.6670,0.669,1111122 
COMPS,ioos:station:USF.COMPS:ARP:1,2010-05-01T19:18:00Z,28.4330,-82.6670,0.661,1111122 
COMPS,ioos:station:USF.COMPS:ARP:1,2010-05-01T19:24:00Z,28.4330,-82.6670,0.655,1111122 
COMPS,ioos:station:USF.COMPS:ARP:1,2010-05-01T19:30:00Z,28.4330,-82.6670,0.639,1111122 
COMPS,ioos:station:USF.COMPS:ARP:1,2010-05-01T19:36:00Z,28.4330,-82.6670,0.63,1111122 
COMPS,ioos:station:USF.COMPS:ARP:1,2010-05-01T19:42:00Z,28.4330,-82.6670,0.616,1111122 
COMPS,ioos:station:USF.COMPS:ARP:1,2010-05-01T19:48:00Z,28.4330,-82.6670,0.606,1111122 
COMPS,ioos:station:USF.COMPS:ARP:1,2010-05-01T19:54:00Z,28.4330,-82.6670,0.587,1111122 
COMPS,ioos:station:USF.COMPS:ARP:1,2010-05-01T20:00:00Z,28.4330,-82.6670,0.575,1111122 
COMPS,ioos:station:USF.COMPS:ARP:1,2010-05-01T20:06:00Z,28.4330,-82.6670,0.563,1111122 
COMPS,ioos:station:USF.COMPS:ARP:1,2010-05-01T20:12:00Z,28.4330,-82.6670,0.547,1111122 
COMPS,ioos:station:USF.COMPS:ARP:1,2010-05-01T20:18:00Z,28.4330,-82.6670,0.529,1111122 
COMPS,ioos:station:USF.COMPS:ARP:1,2010-05-01T20:24:00Z,28.4330,-82.6670,0.517,1111122 
COMPS,ioos:station:USF.COMPS:ARP:1,2010-05-01T20:30:00Z,28.4330,-82.6670,0.497,1111122 
COMPS,ioos:station:USF.COMPS:ARP:1,2010-05-01T20:36:00Z,28.4330,-82.6670,0.486,1111122 
COMPS,ioos:station:USF.COMPS:ARP:1,2010-05-01T20:42:00Z,28.4330,-82.6670,0.469,1111122 
COMPS,ioos:station:USF.COMPS:ARP:1,2010-05-01T20:48:00Z,28.4330,-82.6670,0.452,1111122 
COMPS,ioos:station:USF.COMPS:ARP:1,2010-05-01T20:54:00Z,28.4330,-82.6670,0.429,1111122 
COMPS,ioos:station:USF.COMPS:ARP:1,2010-05-01T21:00:00Z,28.4330,-82.6670,0.41,1111122 
COMPS,ioos:station:USF.COMPS:ARP:1,2010-05-01T21:06:00Z,28.4330,-82.6670,0.389,1111122 
COMPS,ioos:station:USF.COMPS:ARP:1,2010-05-01T21:12:00Z,28.4330,-82.6670,0.368,1111122 
COMPS,ioos:station:USF.COMPS:ARP:1,2010-05-01T21:18:00Z,28.4330,-82.6670,0.343,1111122 
COMPS,ioos:station:USF.COMPS:ARP:1,2010-05-01T21:24:00Z,28.4330,-82.6670,0.322,1111122 
COMPS,ioos:station:USF.COMPS:ARP:1,2010-05-01T21:30:00Z,28.4330,-82.6670,0.304,1111122 
COMPS,ioos:station:USF.COMPS:ARP:1,2010-05-01T21:36:00Z,28.4330,-82.6670,0.285,1111122 
COMPS,ioos:station:USF.COMPS:ARP:1,2010-05-01T21:42:00Z,28.4330,-82.6670,0.263,1111122 
COMPS,ioos:station:USF.COMPS:ARP:1,2010-05-01T21:48:00Z,28.4330,-82.6670,0.249,1111122 
COMPS,ioos:station:USF.COMPS:ARP:1,2010-05-01T21:54:00Z,28.4330,-82.6670,0.239,1111122 
COMPS,ioos:station:USF.COMPS:ARP:1,2010-05-01T22:00:00Z,28.4330,-82.6670,0.22,1111122 
COMPS,ioos:station:USF.COMPS:ARP:1,2010-05-01T22:06:00Z,28.4330,-82.6670,0.2,1111122 
COMPS,ioos:station:USF.COMPS:ARP:1,2010-05-01T22:12:00Z,28.4330,-82.6670,0.183,1111122 
COMPS,ioos:station:USF.COMPS:ARP:1,2010-05-01T22:18:00Z,28.4330,-82.6670,0.163,1111122 
COMPS,ioos:station:USF.COMPS:ARP:1,2010-05-01T22:24:00Z,28.4330,-82.6670,0.143,1111122 
COMPS,ioos:station:USF.COMPS:ARP:1,2010-05-01T22:30:00Z,28.4330,-82.6670,0.124,1111122 
COMPS,ioos:station:USF.COMPS:ARP:1,2010-05-01T22:36:00Z,28.4330,-82.6670,0.103,1111122 
COMPS,ioos:station:USF.COMPS:ARP:1,2010-05-01T22:42:00Z,28.4330,-82.6670,0.085,1111122 
COMPS,ioos:station:USF.COMPS:ARP:1,2010-05-01T22:48:00Z,28.4330,-82.6670,0.066,1111122 
COMPS,ioos:station:USF.COMPS:ARP:1,2010-05-01T22:54:00Z,28.4330,-82.6670,0.043,1111122 
COMPS,ioos:station:USF.COMPS:ARP:1,2010-05-01T23:00:00Z,28.4330,-82.6670,0.025,1111122 
COMPS,ioos:station:USF.COMPS:ARP:1,2010-05-01T23:06:00Z,28.4330,-82.6670,0.004,1111122 
COMPS,ioos:station:USF.COMPS:ARP:1,2010-05-01T23:12:00Z,28.4330,-82.6670,-0.016,1111122 
COMPS,ioos:station:USF.COMPS:ARP:1,2010-05-01T23:18:00Z,28.4330,-82.6670,-0.034,1111122 
COMPS,ioos:station:USF.COMPS:ARP:1,2010-05-01T23:24:00Z,28.4330,-82.6670,-0.052,1111122 
COMPS,ioos:station:USF.COMPS:ARP:1,2010-05-01T23:30:00Z,28.4330,-82.6670,-0.07,1111122 
COMPS,ioos:station:USF.COMPS:ARP:1,2010-05-01T23:36:00Z,28.4330,-82.6670,-0.088,1111122 
COMPS,ioos:station:USF.COMPS:ARP:1,2010-05-01T23:42:00Z,28.4330,-82.6670,-0.105,1111122 
COMPS,ioos:station:USF.COMPS:ARP:1,2010-05-01T23:48:00Z,28.4330,-82.6670,-0.123,1111122 
COMPS,ioos:station:USF.COMPS:ARP:1,2010-05-01T23:54:00Z,28.4330,-82.6670,-0.139,1111122 
COMPS,ioos:station:USF.COMPS:ARP:1,2010-05-02T00:00:00Z,28.4330,-82.6670,-0.155,1111122 
COMPS,ioos:station:USF.COMPS:ARP:1,2010-05-02T00:06:00Z,28.4330,-82.6670,-0.172,1111122 
COMPS,ioos:station:USF.COMPS:ARP:1,2010-05-02T00:12:00Z,28.4330,-82.6670,-0.188,1111122 
COMPS,ioos:station:USF.COMPS:ARP:1,2010-05-02T00:18:00Z,28.4330,-82.6670,-0.204,1111122 
COMPS,ioos:station:USF.COMPS:ARP:1,2010-05-02T00:24:00Z,28.4330,-82.6670,-0.219,1111122 
COMPS,ioos:station:USF.COMPS:ARP:1,2010-05-02T00:30:00Z,28.4330,-82.6670,-0.234,1111122 
COMPS,ioos:station:USF.COMPS:ARP:1,2010-05-02T00:36:00Z,28.4330,-82.6670,-0.249,1111122 
COMPS,ioos:station:USF.COMPS:ARP:1,2010-05-02T00:42:00Z,28.4330,-82.6670,-0.264,1111122 
COMPS,ioos:station:USF.COMPS:ARP:1,2010-05-02T00:48:00Z,28.4330,-82.6670,-0.278,1111122 
COMPS,ioos:station:USF.COMPS:ARP:1,2010-05-02T00:54:00Z,28.4330,-82.6670,-0.292,1111122 
COMPS,ioos:station:USF.COMPS:ARP:1,2010-05-02T01:00:00Z,28.4330,-82.6670,-0.305,1111122 
COMPS,ioos:station:USF.COMPS:ARP:1,2010-05-02T01:06:00Z,28.4330,-82.6670,-0.318,1111122 
COMPS,ioos:station:USF.COMPS:ARP:1,2010-05-02T01:12:00Z,28.4330,-82.6670,-0.33,1111122 
COMPS,ioos:station:USF.COMPS:ARP:1,2010-05-02T01:18:00Z,28.4330,-82.6670,-0.343,1111122 
COMPS,ioos:station:USF.COMPS:ARP:1,2010-05-02T01:24:00Z,28.4330,-82.6670,-0.355,1111122 
COMPS,ioos:station:USF.COMPS:ARP:1,2010-05-02T01:30:00Z,28.4330,-82.6670,-0.366,1111122 
COMPS,ioos:station:USF.COMPS:ARP:1,2010-05-02T01:36:00Z,28.4330,-82.6670,-0.377,1111122 
COMPS,ioos:station:USF.COMPS:ARP:1,2010-05-02T01:42:00Z,28.4330,-82.6670,-0.387,1111122 
COMPS,ioos:station:USF.COMPS:ARP:1,2010-05-02T01:48:00Z,28.4330,-82.6670,-0.397,1111122 
COMPS,ioos:station:USF.COMPS:ARP:1,2010-05-02T01:54:00Z,28.4330,-82.6670,-0.407,1111122 
COMPS,ioos:station:USF.COMPS:ARP:1,2010-05-02T02:00:00Z,28.4330,-82.6670,-0.417,1111122 
COMPS,ioos:station:USF.COMPS:ARP:1,2010-05-02T02:06:00Z,28.4330,-82.6670,-0.427,1111122 
COMPS,ioos:station:USF.COMPS:ARP:1,2010-05-02T02:12:00Z,28.4330,-82.6670,-0.437,1111122 
COMPS,ioos:station:USF.COMPS:ARP:1,2010-05-02T02:18:00Z,28.4330,-82.6670,-0.446,1111122 
COMPS,ioos:station:USF.COMPS:ARP:1,2010-05-02T02:24:00Z,28.4330,-82.6670,-0.454,1111122 
COMPS,ioos:station:USF.COMPS:ARP:1,2010-05-02T02:30:00Z,28.4330,-82.6670,-0.462,1111122 
COMPS,ioos:station:USF.COMPS:ARP:1,2010-05-02T02:36:00Z,28.4330,-82.6670,-0.47,1111122 
COMPS,ioos:station:USF.COMPS:ARP:1,2010-05-02T02:42:00Z,28.4330,-82.6670,-0.477,1111122 
COMPS,ioos:station:USF.COMPS:ARP:1,2010-05-02T02:48:00Z,28.4330,-82.6670,-0.484,1111122 
COMPS,ioos:station:USF.COMPS:ARP:1,2010-05-02T02:54:00Z,28.4330,-82.6670,-0.491,1111122 